| time (UTC) | temp C | wind direction | speed KPH | gust KPH | rain 1hr cm | rain 24hr cm | rain mn cm | humidity % | barometer mb |
| 20260504081529 | 8 | 0 | 0.0 | 0.0 | 0.00 | 0.00 | 0.00 | 70 | 1015.8 |
| 20260504044528 | 7 | 0 | 0.0 | 0.0 | 0.00 | 0.00 | 0.00 | 70 | 1016.0 |
| 20260504043030 | 7 | 0 | 0.0 | 1.6 | 0.00 | 0.00 | 0.00 | 71 | 1015.9 |
| 20260504041529 | 7 | 0 | 0.0 | 0.0 | 0.00 | 0.00 | 0.00 | 69 | 1016.0 |
| 20260504040029 | 6 | 0 | 0.0 | 0.0 | 0.00 | 0.00 | 0.00 | 72 | 1016.0 |
| 20260504034528 | 6 | 0 | 0.0 | 0.0 | 0.00 | 0.00 | 0.00 | 74 | 1016.0 |
| 20260504033028 | 7 | 0 | 0.0 | 0.0 | 0.00 | 0.00 | 0.00 | 74 | 1015.8 |
| 20260504031530 | 7 | 0 | 0.0 | 0.0 | 0.00 | 0.00 | 0.00 | 73 | 1015.7 |
| 20260504030034 | 7 | 0 | 0.0 | 0.0 | 0.00 | 0.00 | 0.00 | 71 | 1015.7 |
| 20260504024529 | 7 | 0 | 0.0 | 0.0 | 0.00 | 0.00 | 0.00 | 68 | 1015.6 |
| 20260504023028 | 7 | 0 | 0.0 | 0.0 | 0.00 | 0.00 | 0.00 | 66 | 1015.5 |
| 20260504021535 | 8 | 0 | 0.0 | 0.0 | 0.00 | 0.00 | 0.00 | 65 | 1015.5 |
| 20260504020035 | 8 | 0 | 0.0 | 0.0 | 0.00 | 0.00 | 0.00 | 66 | 1015.5 |
| 20260504014530 | 8 | 0 | 0.0 | 0.0 | 0.00 | 0.00 | 0.00 | 61 | 1015.3 |
| 20260504013035 | 9 | 0 | 0.0 | 0.0 | 0.00 | 0.00 | 0.00 | 58 | 1015.3 |
| 20260504011528 | 10 | 0 | 0.0 | 0.0 | 0.00 | 0.00 | 0.00 | 55 | 1015.2 |
| 20260504010028 | 10 | 0 | 0.0 | 0.0 | 0.00 | 0.00 | 0.00 | 57 | 1015.2 |
| 20260504004539 | 11 | 0 | 0.0 | 0.0 | 0.00 | 0.00 | 0.00 | 55 | 1015.1 |
| 20260504003027 | 12 | 0 | 0.0 | 0.0 | 0.00 | 0.00 | 0.00 | 54 | 1015.0 |
| 20260504001535 | 12 | 0 | 0.0 | 0.0 | 0.00 | 0.00 | 0.00 | 44 | 1014.9 |
| 20260504000028 | 13 | 0 | 0.0 | 0.0 | 0.00 | 0.00 | 0.00 | 43 | 1014.8 |
| 20260503234534 | 14 | 0 | 0.0 | 3.2 | 0.00 | 0.00 | 0.00 | 42 | 1014.6 |
| 20260503233027 | 15 | 0 | 0.0 | 1.6 | 0.00 | 0.00 | 0.00 | 41 | 1014.5 |
| 20260503231528 | 15 | 0 | 0.0 | 6.4 | 0.00 | 0.00 | 0.00 | 39 | 1014.4 |
| 20260503230030 | 15 | 268 | 1.6 | 6.4 | 0.00 | 0.00 | 0.00 | 34 | 1014.3 |
| 20260503224529 | 15 | 260 | 0.0 | 8.0 | 0.00 | 0.00 | 0.00 | 34 | 1014.4 |
| 20260503223028 | 15 | 288 | 0.0 | 8.0 | 0.00 | 0.00 | 0.00 | 37 | 1014.5 |
| 20260503221533 | 15 | 262 | 1.6 | 8.0 | 0.00 | 0.00 | 0.00 | 35 | 1014.5 |
| 20260503220034 | 15 | 296 | 0.0 | 9.7 | 0.00 | 0.00 | 0.00 | 37 | 1014.5 |
| 20260503214537 | 16 | 290 | 3.2 | 12.9 | 0.00 | 0.00 | 0.00 | 34 | 1014.6 |
| 20260503213034 | 16 | 269 | 3.2 | 11.3 | 0.00 | 0.00 | 0.00 | 34 | 1014.5 |
| 20260503211526 | 16 | 0 | 0.0 | 8.0 | 0.00 | 0.00 | 0.00 | 36 | 1014.7 |
| 20260503210028 | 16 | 58 | 0.0 | 11.3 | 0.00 | 0.00 | 0.00 | 35 | 1014.6 |
| 20260503204529 | 16 | 43 | 0.0 | 6.4 | 0.00 | 0.00 | 0.00 | 37 | 1014.6 |
| 20260503203027 | 16 | 246 | 6.4 | 12.9 | 0.00 | 0.00 | 0.00 | 34 | 1014.7 |
| 20260503201530 | 16 | 288 | 3.2 | 9.7 | 0.00 | 0.00 | 0.00 | 36 | 1015.1 |
| 20260503200031 | 16 | 277 | 8.0 | 19.3 | 0.00 | 0.00 | 0.00 | 33 | 1015.0 |
| 20260503194532 | 16 | 293 | 0.0 | 11.3 | 0.00 | 0.00 | 0.00 | 39 | 1015.1 |
| 20260503193029 | 15 | 289 | 8.0 | 16.1 | 0.00 | 0.00 | 0.00 | 36 | 1015.6 |
| 20260503191529 | 15 | 282 | 4.8 | 14.5 | 0.00 | 0.00 | 0.00 | 37 | 1015.6 |
| 20260503190038 | 15 | 78 | 3.2 | 12.9 | 0.00 | 0.00 | 0.00 | 39 | 1015.8 |
| 20260503184531 | 15 | 294 | 3.2 | 11.3 | 0.00 | 0.00 | 0.00 | 37 | 1015.9 |
| 20260503183036 | 15 | 278 | 0.0 | 16.1 | 0.00 | 0.00 | 0.00 | 42 | 1016.2 |
| 20260503181546 | 15 | 257 | 4.8 | 17.7 | 0.00 | 0.00 | 0.00 | 38 | 1016.0 |
| 20260503180041 | 15 | 318 | 1.6 | 11.3 | 0.00 | 0.00 | 0.00 | 44 | 1016.4 |
| 20260503174531 | 15 | 309 | 0.0 | 16.1 | 0.00 | 0.00 | 0.00 | 43 | 1016.5 |
| 20260503173028 | 15 | 279 | 3.2 | 11.3 | 0.00 | 0.00 | 0.00 | 39 | 1016.5 |
| 20260503171530 | 13 | 310 | 3.2 | 20.9 | 0.00 | 0.00 | 0.00 | 43 | 1016.8 |